Weather History for Brisbane Airport M. O, Queensland

Change the Weather History Date:

Thursday, October 3, 2013

  Actual Average Record
Temperature  
Mean Temperature 76 °F -  
Max Temperature 89 °F 78 °F - ()
Min Temperature 62 °F 60 °F - ()
Cooling Degree Days 10    
Growing Degree Days 26 (Base 50)    
Moisture  
Dew Point 48 °F    
Average Humidity 46    
Maximum Humidity 100    
Minimum Humidity 6    
Precipitation  
Precipitation 0.00 in 0.14 in - ()
Sea Level Pressure  
Sea Level Pressure 29.86 in    
Wind  
Wind Speed 13 mph ()    
Max Wind Speed 25 mph    
Max Gust Speed 36 mph    
Visibility 8.4 miles    
Events      
T = Trace of Precipitation, MM = Missing Value Source: Averaged Metar Reports

Daily Weather History Graph

Daily Weather History Graph

Search for Another Location

Airport:

Trip Planner

Search our weather history database for the weather conditions in past years. The results will help you decide how hot, cold, wet, or windy it might be!

Date:

Astronomy

Oct. 03, 2013 Rise Set
Actual Time 5:24 AM AEST 5:48 PM AEST
Civil Twilight 5:01 AM AEST 6:12 PM AEST
Nautical Twilight 4:34 AM AEST 6:39 PM AEST
Astronomical Twilight 4:06 AM AEST 7:07 PM AEST
Moon 3:55 AM AEST (10/3) 4:08 PM AEST (10/3)
Length of Visible Light 13h 10m
Length of Day
12h 23m
Waning Crescent, 4% of the Moon is Illuminated
Oct 3
Waning Crescent
Oct 5
New
Oct 12
First Quarter
Oct 19
Full
Oct 27
Last Quarter

Hourly Weather History & Observations

Time (AEST) Temp. Heat Index Dew Point Humidity Pressure Visibility Wind Dir Wind Speed Gust Speed Precip Events Conditions
12:00 AM 70 °F - 67 °F 85% 29.91 in 19 mi North 13.8 mph - -   Partly Cloudy
12:00 AM 69.8 °F - 66.2 °F 88% 29.89 in - North 13.8 mph - N/A   Clear
12:30 AM 69.8 °F - 66.2 °F 88% 29.89 in - North 10.4 mph - N/A   Clear
1:00 AM 68 °F - 66 °F 90% 29.89 in - North 10.4 mph - -  
1:00 AM 68.0 °F - 66.2 °F 94% 29.89 in - North 10.4 mph - N/A   Clear
1:30 AM 69.8 °F - 64.4 °F 83% 29.86 in - North 12.7 mph - N/A   Clear
2:00 AM 69.8 °F - 66.2 °F 88% 29.86 in - North 11.5 mph - N/A   Clear
2:30 AM 68.0 °F - 64.4 °F 88% 29.86 in - North 12.7 mph - N/A   Clear
3:00 AM 66 °F - 64 °F 90% 29.86 in 12 mi North 12.7 mph - -   Partly Cloudy
3:00 AM 66.2 °F - 64.4 °F 94% 29.86 in - North 12.7 mph - N/A   Clear
3:30 AM 64.4 °F - 62.6 °F 94% 29.86 in - WSW 4.6 mph - N/A   Clear
4:00 AM 65 °F - 63 °F 92% 29.86 in - WSW 4.6 mph - -  
4:00 AM 64.4 °F - 62.6 °F 94% 29.86 in - WSW 4.6 mph - N/A   Clear
4:30 AM 64.4 °F - 62.6 °F 94% 29.86 in - West 2.3 mph - N/A   Clear
5:00 AM 62.6 °F - 62.6 °F 100% 29.86 in 6.2 mi WSW 4.6 mph - N/A   Mostly Cloudy
5:30 AM 64.4 °F - 62.6 °F 94% 29.89 in 6.2 mi West 5.8 mph - N/A   Mostly Cloudy
6:00 AM 65 °F - 62 °F 88% 29.88 in 16 mi West 3.5 mph - -   Partly Cloudy
6:00 AM 64.4 °F - 62.6 °F 94% 29.86 in - West 3.5 mph - N/A   Clear
6:30 AM 66.2 °F - 64.4 °F 94% 29.89 in 6.2 mi North 5.8 mph - N/A   Scattered Clouds
7:00 AM 69 °F - 65 °F 85% 29.89 in - NNW 9.2 mph - -  
7:00 AM 69.8 °F - 66.2 °F 88% 29.89 in 6.2 mi NNW 9.2 mph - N/A   Scattered Clouds
7:30 AM 73.4 °F - 66.2 °F 78% 29.89 in 6.2 mi North 11.5 mph - N/A   Partly Cloudy
8:00 AM 75.2 °F - 64.4 °F 69% 29.89 in 6.2 mi NNW 10.4 mph - N/A   Scattered Clouds
8:30 AM 77.0 °F - 64.4 °F 65% 29.89 in 6.2 mi NNW 13.8 mph - N/A   Partly Cloudy
9:00 AM 79 °F - 64 °F 50% 29.89 in 19 mi North 12.7 mph - -   Partly Cloudy
9:00 AM 78.8 °F - 64.4 °F 61% 29.89 in 6.2 mi North 12.7 mph - N/A   Partly Cloudy
9:30 AM 82.4 °F 83.4 °F 62.6 °F 51% 29.86 in 6.2 mi NNW 13.8 mph - N/A   Partly Cloudy
9:43 AM 82.4 °F 82.9 °F 60.8 °F 48% 29.86 in 6.2 mi WNW 23.0 mph - N/A   Partly Cloudy
9:54 AM 84.2 °F 84.4 °F 60.8 °F 45% 29.86 in 6.2 mi North 12.7 mph - N/A   Partly Cloudy
10:00 AM 84 °F - 61 °F 36% 29.87 in - NW 13.8 mph - -  
10:00 AM 84.2 °F 84.4 °F 60.8 °F 45% 29.86 in 6.2 mi NW 13.8 mph - N/A   Partly Cloudy
10:30 AM 84.2 °F 84.4 °F 60.8 °F 45% 29.86 in 6.2 mi NNW 19.6 mph - N/A   Partly Cloudy
11:00 AM 84.2 °F 84.4 °F 60.8 °F 45% 29.83 in 6.2 mi NW 15.0 mph - N/A   Scattered Clouds
11:30 AM 84.2 °F 84.4 °F 60.8 °F 45% 29.80 in 6.2 mi NNW 16.1 mph - N/A   Scattered Clouds
12:00 PM 86.0 °F 86.1 °F 60.8 °F 43% 29.80 in 6.2 mi WNW 10.4 mph - N/A   Mostly Cloudy
12:30 PM 86.0 °F 84.9 °F 57.2 °F 37% 29.80 in 6.2 mi WNW 19.6 mph - N/A   Mostly Cloudy
1:00 PM 88 °F - 54 °F 21% 29.79 in - West 18.4 mph - -  
1:00 PM 87.8 °F 85.7 °F 53.6 °F 31% 29.77 in 6.2 mi West 18.4 mph - N/A   Mostly Cloudy
1:30 PM 87.8 °F - 51.8 °F 29% 29.77 in 6.2 mi WNW 16.1 mph - N/A   Mostly Cloudy
2:00 PM 89.6 °F - 46.4 °F 22% 29.74 in 6.2 mi West 17.3 mph - N/A   Scattered Clouds
2:35 PM 89.6 °F - 39.2 °F 17% 29.74 in 6.2 mi SW 23.0 mph - N/A   Scattered Clouds
2:39 PM 87.8 °F - 39.2 °F 18% 29.74 in 6.2 mi WSW 25.3 mph - N/A   Scattered Clouds
3:00 PM 89 °F - 39 °F 9% 29.76 in 19 mi WSW 21.9 mph - -   Partly Cloudy
3:00 PM 87.8 °F - 39.2 °F 18% 29.74 in 6.2 mi WSW 21.9 mph - N/A   Partly Cloudy
3:09 PM 87.8 °F - 39.2 °F 18% 29.74 in 6.2 mi WSW 21.9 mph 33.4 mph N/A   Partly Cloudy
3:30 PM 87.8 °F - 35.6 °F 16% 29.77 in 6.2 mi WSW 21.9 mph - N/A   Partly Cloudy
3:45 PM 86.0 °F - 32.0 °F 14% 29.77 in 6.2 mi West 21.9 mph 33.4 mph N/A   Partly Cloudy
4:00 PM 86 °F - 31 °F 7% 29.78 in - WSW 21.9 mph - -  
4:01 PM 86.0 °F - 30.2 °F 13% 29.77 in 6.2 mi WSW 21.9 mph 34.5 mph N/A   Partly Cloudy
4:30 PM 84.2 °F - 26.6 °F 12% 29.77 in 6.2 mi WSW 24.2 mph 35.7 mph N/A   Partly Cloudy
4:48 PM 82.4 °F - 30.2 °F 15% 29.80 in 6.2 mi West 21.9 mph - N/A   Partly Cloudy
5:00 PM 82.4 °F - 30.2 °F 15% 29.80 in 6.2 mi West 21.9 mph - N/A   Partly Cloudy
5:30 PM 80.6 °F - 28.4 °F 15% 29.80 in - West 21.9 mph - N/A   Clear
6:00 PM 78 °F - 29 °F 9% 29.84 in 19 mi West 21.9 mph - -   Partly Cloudy
6:00 PM 78.8 °F - 30.2 °F 17% 29.83 in - West 21.9 mph - N/A   Clear
6:30 PM 77.0 °F - 32.0 °F 19% 29.86 in - WSW 19.6 mph - N/A   Clear
7:00 PM 75 °F - 33 °F 12% 29.89 in - WSW 18.4 mph - -  
7:00 PM 75.2 °F - 32.0 °F 21% 29.89 in - WSW 18.4 mph - N/A   Clear
7:14 PM 75.2 °F - 28.4 °F 18% 29.89 in - WSW 17.3 mph 28.8 mph N/A   Unknown
7:30 PM 73.4 °F - 26.6 °F 18% 29.92 in - WSW 20.7 mph - N/A   Clear
8:00 PM 71.6 °F - 26.6 °F 19% 29.92 in - WSW 17.3 mph - N/A   Clear
8:30 PM 71.6 °F - 26.6 °F 19% 29.95 in - SW 18.4 mph - N/A   Clear
9:00 PM 70 °F - 25 °F 9% 29.97 in 19 mi WSW 21.9 mph - -   Partly Cloudy
9:00 PM 69.8 °F - 24.8 °F 18% 29.95 in - SW 21.9 mph - N/A   Clear
9:30 PM 68.0 °F - 14.0 °F 12% 29.98 in - SW 23.0 mph - N/A   Clear
10:00 PM 68 °F - 15 °F 6% 29.99 in - SW 18.4 mph - -  
10:00 PM 68.0 °F - 15.8 °F 13% 29.98 in - SW 18.4 mph - N/A   Clear
10:30 PM 64.4 °F - 21.2 °F 19% 30.01 in - SW 13.8 mph - N/A   Clear
11:00 PM 64.4 °F - 21.2 °F 19% 30.01 in - SW 13.8 mph - N/A   Clear
11:30 PM 62.6 °F - 23.0 °F 22% 30.01 in - SSW 12.7 mph - N/A   Clear